Change the Weather History Date:

Monday, February 20, 2012

  Actual Average Record
Temperature  
Mean Temperature 44 °F -  
Max Temperature 57 °F 57 °F 90 °F (1981)
Min Temperature 32 °F 27 °F 9 °F (1978)
Degree Days  
Heating Degree Days 20    
Moisture  
Dew Point 34 °F    
Average Humidity 73    
Maximum Humidity 93    
Minimum Humidity 21    
Precipitation  
Precipitation 0.00 in - - ()
Sea Level Pressure  
Sea Level Pressure 29.80 in    
Wind  
Wind Speed 26 mph (SSW)    
Max Wind Speed 41 mph    
Max Gust Speed 60 mph    
Visibility 9 miles    
Events Rain    
Averages and records for this station are not official NWS values.
T = Trace of Precipitation, MM = Missing Value Source: NWS Daily Summary

Daily Weather History Graph

Daily Weather History Graph

Search for Another Location

Airport or City:

Trip Planner

Search our weather history database for the weather conditions in past years. The results will help you decide how hot, cold, wet, or windy it might be!

Date:

Astronomy

Feb. 20, 2012 Rise Set
Actual Time 7:21 AM CST 6:24 PM CST
Civil Twilight 6:55 AM CST 6:50 PM CST
Nautical Twilight 6:25 AM CST 7:20 PM CST
Astronomical Twilight 5:55 AM CST 7:50 PM CST
Moon 6:18 AM CST (2/20) 5:31 PM CST (2/20)
Length of Visible Light 11h 55m
Length of Day
11h 03m
Waning Crescent, 1% of the Moon is Illuminated
Feb 20
Waning Crescent
Feb 21
New
Feb 29
First Quarter
Mar 8
Full
Mar 14
Last Quarter

Hourly Weather History & Observations

Time (CST) Temp. Windchill Dew Point Humidity Pressure Visibility Wind Dir Wind Speed Gust Speed Precip Events Conditions
12:04 AM 44.6 °F 35.1 °F 37.4 °F 76% 29.83 in 10.0 mi South 27.6 mph 40.3 mph N/A   Mostly Cloudy
12:35 AM 42.8 °F 33.1 °F 39.2 °F 87% 29.80 in 10.0 mi South 25.3 mph 33.4 mph N/A   Mostly Cloudy
12:53 AM 43.0 °F 34.2 °F 39.0 °F 86% 29.81 in 10.0 mi South 20.7 mph 32.2 mph 0.00 in Rain Light Rain
1:03 AM 42.8 °F 33.5 °F 39.2 °F 87% 29.81 in 10.0 mi South 23.0 mph 29.9 mph 0.00 in   Overcast
1:14 AM 42.8 °F 32.9 °F 39.2 °F 87% 29.80 in 10.0 mi South 26.5 mph 34.5 mph 0.00 in   Mostly Cloudy
1:53 AM 44.1 °F 34.2 °F 41.0 °F 89% 29.81 in 9.0 mi South 28.8 mph 38.0 mph 0.00 in   Overcast
2:00 AM 44.6 °F 34.7 °F 41.0 °F 87% 29.81 in 9.0 mi South 29.9 mph 38.0 mph N/A   Overcast
2:42 AM 44.6 °F 34.7 °F 41.0 °F 87% 29.79 in 10.0 mi South 29.9 mph 35.7 mph N/A   Overcast
2:53 AM 44.1 °F 33.8 °F 41.0 °F 89% 29.80 in 10.0 mi South 31.1 mph 35.7 mph N/A   Overcast
3:44 AM 44.6 °F 36.1 °F 41.0 °F 87% 29.77 in 10.0 mi South 21.9 mph 33.4 mph N/A   Overcast
3:53 AM 44.1 °F 34.0 °F 41.0 °F 89% 29.77 in 10.0 mi South 29.9 mph 35.7 mph N/A   Overcast
4:53 AM 43.0 °F 32.9 °F 41.0 °F 93% 29.73 in 8.0 mi South 27.6 mph 39.1 mph N/A   Overcast
5:31 AM 42.8 °F 32.5 °F 41.0 °F 93% 29.73 in 7.0 mi South 28.8 mph 39.1 mph N/A   Overcast
5:53 AM 43.0 °F 32.7 °F 41.0 °F 93% 29.73 in 6.0 mi South 28.8 mph 34.5 mph N/A   Overcast
6:53 AM 43.0 °F 32.9 °F 41.0 °F 93% 29.72 in 7.0 mi South 27.6 mph 36.8 mph N/A   Overcast
7:04 AM 42.8 °F 33.1 °F 41.0 °F 93% 29.71 in 7.0 mi South 25.3 mph 36.8 mph N/A   Overcast
7:53 AM 43.0 °F 34.0 °F 41.0 °F 93% 29.75 in 7.0 mi South 21.9 mph 31.1 mph N/A   Mostly Cloudy
8:26 AM 42.8 °F 33.8 °F 41.0 °F 93% 29.74 in 8.0 mi South 21.9 mph 31.1 mph N/A   Scattered Clouds
8:53 AM 44.1 °F 34.8 °F 41.0 °F 89% 29.75 in 9.0 mi South 25.3 mph 29.9 mph N/A   Partly Cloudy
9:53 AM 46.0 °F 37.4 °F 41.0 °F 83% 29.76 in 10.0 mi SSW 25.3 mph 33.4 mph N/A   Clear
10:53 AM 48.0 °F - 39.0 °F 71% 29.73 in 10.0 mi SSW 23.0 mph 32.2 mph N/A   Clear
11:53 AM 55.0 °F - 33.1 °F 43% 29.70 in 10.0 mi SW 21.9 mph 28.8 mph N/A   Clear
12:53 PM 57.0 °F - 21.0 °F 25% 29.65 in 10.0 mi SW 26.5 mph 39.1 mph N/A   Clear
1:53 PM 57.0 °F - 17.1 °F 21% 29.65 in 10.0 mi West 33.4 mph 43.7 mph N/A   Scattered Clouds
2:39 PM 51.8 °F - 30.2 °F 44% 29.70 in 6.0 mi WNW 35.7 mph 59.8 mph N/A   Haze
2:53 PM 48.9 °F - 32.0 °F 52% 29.71 in 10.0 mi WNW 41.4 mph 54.1 mph N/A   Clear
3:53 PM 44.1 °F 34.0 °F 30.0 °F 58% 29.79 in 10.0 mi WNW 29.9 mph 42.6 mph N/A   Partly Cloudy
4:53 PM 44.1 °F 33.2 °F 28.9 °F 55% 29.84 in 10.0 mi WNW 35.7 mph 54.1 mph N/A   Mostly Cloudy
5:53 PM 43.0 °F 32.0 °F 27.0 °F 53% 29.88 in 10.0 mi WNW 33.4 mph 41.4 mph N/A   Clear
6:53 PM 41.0 °F 31.6 °F 26.1 °F 55% 29.92 in 10.0 mi WNW 20.7 mph - N/A   Clear
7:53 PM 39.0 °F 31.4 °F 25.0 °F 57% 29.95 in 10.0 mi West 12.7 mph - N/A   Clear
8:53 PM 37.0 °F 28.9 °F 23.0 °F 57% 29.99 in 10.0 mi West 12.7 mph - N/A   Clear
9:53 PM 32.0 °F 23.6 °F 21.9 °F 66% 30.00 in 10.0 mi WSW 10.4 mph - N/A   Clear
10:53 PM 34.0 °F 26.0 °F 21.9 °F 61% 30.03 in 10.0 mi WSW 10.4 mph - N/A   Clear
11:53 PM 32.0 °F 23.6 °F 21.0 °F 64% 30.04 in 10.0 mi WSW 10.4 mph - N/A   Clear